User: anonymous   Login
Location: Unspecified
(0.0000°N, 0.0000°E)
Time: 23:47:59
(UTC+00:00)
Language:

Aussat K1 - Orbit

View from above orbital plane
View from above orbital plane
View from above satellite
View from above satellite

Ground track
Ground track

The orbit data is extracted from the following two-line orbital elements,

1 15993U 85076B   15243.78115784 -.00000102  00000-0  00000+0 0  9992
2 15993  15.1154  14.3478 0004008 208.1116 215.8317  0.99769439 80241
Epoch (UTC): 31 August 2015 18:44:52
Eccentricity: 0.0004008
inclination: 15.1154°
perigee height: 35910 km
apogee height: 35944 km
right ascension of ascending node: 14.3478°
argument of perigee: 208.1116°
revolutions per day: 0.99769439
mean anomaly at epoch: 215.8317°
orbit number at epoch: 8024

The dashed part of the orbit path shows where the satellite is in the earth's shadow,  

DLR